^^
Station Historical Data
Daily Summary for July 12, 2018 Units:  Metric    English   Both
« Previous Day
Next Day »
Daily Weekly Monthly Yearly Custom
  High: Low: Average:
Temperature: -17.8 °C 15.1 °C 19.2 °C
Dew Point: -17.8 °C 14 °C 18.1 °C
Humidity: Humidity% 79% 93%
Wind Speed: 0km/h 0km/h 1.4km/h
Wind Gust: 0km/h - -
Wind- - SSW
Pressure: 0 hPa 1016.8 hPa -
Precipitation: 9.4 mm    
Historical Graphs
 
 
Tabular Data for July 12, 2018
Time Temperature Dew Point Pressure Wind Wind Speed Wind Gust Humidity Rainfall Rate (Hourly) solar Conditions
-17.8 °C -17.8 °C 0 hPa Calm     Humidity% 0 mm SolarRadiationWatts/m^2 W/m2 Conditions
00:04 17.3 °C 15.3 °C 1020.5 hPa Calm     88% 0 mm 0.00 W/m2 SCT
00:09 17.3 °C 15.3 °C 1020.5 hPa Calm     88% 0 mm 0.00 W/m2 SCT
00:14 17.3 °C 15.3 °C 1020.5 hPa Calm     88% 0 mm 0.00 W/m2 SCT
00:19 17.2 °C 15.2 °C 1020.5 hPa Calm     88% 0 mm 0.00 W/m2 SCT
00:24 17.2 °C 15.2 °C 1020.5 hPa Calm     88% 0 mm 0.00 W/m2 SCT
00:29 17.1 °C 15.1 °C 1020.2 hPa Calm     88% 0 mm 0.00 W/m2 SCT
00:34 16.9 °C 15.2 °C 1020.2 hPa Calm     90% 0 mm 0.00 W/m2 SCT
00:39 16.8 °C 15.3 °C 1020.2 hPa Calm     91% 0 mm 0.00 W/m2 SCT
00:44 16.8 °C 15.3 °C 1020.5 hPa Calm   0.3 km/h 91% 0 mm 0.00 W/m2 SCT
00:49 16.6 °C 15.1 °C 1020.2 hPa Calm     91% 0 mm 0.00 W/m2 SCT
00:54 16.7 °C 15.6 °C 1020.2 hPa West 1.9 km/h 0.3 km/h 93% 0 mm 0.00 W/m2 SCT
00:59 16.8 °C 15.3 °C 1020.2 hPa Calm   0.3 km/h 91% 0 mm 0.00 W/m2 SCT
01:04 16.8 °C 15.3 °C 1020.5 hPa Calm   0.3 km/h 91% 0 mm 0.00 W/m2 BKN
01:09 16.6 °C 15.4 °C 1020.2 hPa Calm     93% 0 mm 0.00 W/m2 BKN
01:14 16.7 °C 15.6 °C 1020.2 hPa Calm     93% 0 mm 0.00 W/m2 BKN
01:19 16.7 °C 15.6 °C 1020.2 hPa Calm     93% 0 mm 0.00 W/m2 BKN
01:24 16.7 °C 15.6 °C 1020.2 hPa Calm     93% 0 mm 0.00 W/m2 BKN
01:29 16.8 °C 15.7 °C 1020.2 hPa Calm     93% 0 mm 0.00 W/m2 BKN
01:34 16.8 °C 15.7 °C 1020.2 hPa Calm     93% 0 mm 0.00 W/m2 BKN
01:39 16.7 °C 15.6 °C 1020.2 hPa Calm     93% 0 mm 0.00 W/m2 BKN
01:44 16.9 °C 15.8 °C 1020.2 hPa Calm     93% 0 mm 0.00 W/m2 BKN
01:49 16.8 °C 15.7 °C 1020.5 hPa Calm     93% 0 mm 0.00 W/m2 BKN
01:54 16.8 °C 15.7 °C 1020.2 hPa Calm     93% 0 mm 0.00 W/m2 BKN
01:59 16.8 °C 15.7 °C 1019.9 hPa Calm     93% 0 mm 0.00 W/m2 BKN
02:04 16.7 °C 15.6 °C 1020.2 hPa Calm     93% 0 mm 0.00 W/m2 CLR
02:09 16.8 °C 15.7 °C 1020.2 hPa Calm     93% 0 mm 0.00 W/m2 CLR
02:14 16.8 °C 15.7 °C 1020.2 hPa Calm     93% 0 mm 0.00 W/m2 CLR
02:19 16.7 °C 15.6 °C 1020.2 hPa Calm     93% 0 mm 0.00 W/m2 CLR
02:24 16.7 °C 15.6 °C 1020.2 hPa Calm     93% 0 mm 0.00 W/m2 CLR
02:29 16.6 °C 15.4 °C 1020.2 hPa Calm     93% 0 mm 0.00 W/m2 CLR
02:34 16.5 °C 15.7 °C 1019.9 hPa Calm     95% 0 mm 0.00 W/m2 CLR
02:39 16.6 °C 15.8 °C 1019.9 hPa Calm     95% 0 mm 0.00 W/m2 CLR
02:44 16.6 °C 15.8 °C 1019.9 hPa Calm     95% 0 mm 0.00 W/m2 CLR
02:49 16.6 °C 15.4 °C 1019.9 hPa Calm     93% 0 mm 0.00 W/m2 CLR
02:54 16.4 °C 15.3 °C 1019.9 hPa Calm     93% 0 mm 0.00 W/m2 CLR
02:59 16.3 °C 15.5 °C 1020.2 hPa Calm     95% 0 mm 0.00 W/m2 CLR
03:04 16.2 °C 15.6 °C 1020.2 hPa Calm     96% 0 mm 0.00 W/m2 SCT
03:09 16.2 °C 15.6 °C 1020.2 hPa Calm     96% 0 mm 0.00 W/m2 SCT
03:14 16.1 °C 15.4 °C 1020.2 hPa Calm     96% 0 mm 0.00 W/m2 SCT
03:19 16.1 °C 15.4 °C 1020.2 hPa Calm     96% 0 mm 0.00 W/m2 SCT
03:24 15.9 °C 15.3 °C 1020.2 hPa Calm     96% 0 mm 0.00 W/m2 SCT
03:29 15.9 °C 15.3 °C 1020.2 hPa Calm     96% 0 mm 0.00 W/m2 SCT
03:34 15.9 °C 15.3 °C 1020.2 hPa Calm     96% 0 mm 0.00 W/m2 SCT
03:39 15.8 °C 15.2 °C 1020.2 hPa Calm     96% 0 mm 0.00 W/m2 SCT
03:44 15.7 °C 15.1 °C 1019.5 hPa Calm     96% 0 mm 0.00 W/m2 SCT
03:49 15.7 °C 15.1 °C 1020.2 hPa Calm     96% 0 mm 0.00 W/m2 SCT
03:54 15.6 °C 15.3 °C 1019.5 hPa Calm     98% 0 mm 0.00 W/m2 SCT
03:59 15.5 °C 15.2 °C 1019.5 hPa Calm     98% 0 mm 0.00 W/m2 SCT
04:04 15.5 °C 15.2 °C 1019.5 hPa Calm     98% 0 mm 0.00 W/m2 CLR
04:09 15.6 °C 15.3 °C 1019.9 hPa Calm     98% 0 mm 0.00 W/m2 CLR
04:14 15.5 °C 15.2 °C 1019.9 hPa Calm     98% 0 mm 0.00 W/m2 CLR
04:19 15.5 °C 15.2 °C 1019.9 hPa Calm     98% 0 mm 0.00 W/m2 CLR
04:24 15.4 °C 15.1 °C 1019.9 hPa Calm     98% 0 mm 0.00 W/m2 CLR
04:29 15.2 °C 14.9 °C 1019.9 hPa Calm     98% 0 mm 0.00 W/m2 CLR
04:34 15.2 °C 14.9 °C 1019.5 hPa Calm     98% 0 mm 0.00 W/m2 CLR
04:39 15.2 °C 14.9 °C 1019.5 hPa Calm     98% 0 mm 0.00 W/m2 CLR
04:44 15.2 °C 14.9 °C 1019.5 hPa Calm     98% 0 mm 0.00 W/m2 CLR
04:49 15.2 °C 14.9 °C 1019.5 hPa Calm     98% 0 mm 0.00 W/m2 CLR
04:54 15.1 °C 14.8 °C 1019.5 hPa Calm     98% 0 mm 0.00 W/m2 CLR
04:59 15.1 °C 14.8 °C 1019.5 hPa Calm     98% 0 mm 0.00 W/m2 CLR
05:04 15.1 °C 14.8 °C 1019.5 hPa Calm     98% 0 mm 0.00 W/m2 FEW
05:09 15.2 °C 14.9 °C 1019.5 hPa Calm     98% 0 mm 0.00 W/m2 FEW
05:14 15.2 °C 14.9 °C 1019.5 hPa Calm     98% 0 mm 0.00 W/m2 FEW
05:19 15.2 °C 14.9 °C 1019.5 hPa Calm     98% 0 mm 0.00 W/m2 FEW
05:24 15.4 °C 15.1 °C 1019.9 hPa Calm     98% 0 mm 0.00 W/m2 FEW
05:29 15.4 °C 15.1 °C 1019.5 hPa Calm     98% 0 mm 0.00 W/m2 FEW
05:34 15.5 °C 15.2 °C 1019.5 hPa WSW 1.9 km/h 0.3 km/h 98% 0 mm 0.00 W/m2 FEW
05:39 15.5 °C 15.2 °C 1019.9 hPa South 3.2 km/h 0.3 km/h 98% 0 mm 0.00 W/m2 FEW
05:44 15.4 °C 15.1 °C 1020.2 hPa Calm   0.3 km/h 98% 0 mm 0.00 W/m2 FEW
05:49 15.5 °C 15.2 °C 1019.9 hPa Calm     98% 0 mm 0.00 W/m2 FEW
05:54 15.6 °C 15.3 °C 1020.2 hPa Calm     98% 0 mm 0.00 W/m2 FEW
05:59 15.7 °C 15.1 °C 1020.2 hPa Calm     96% 0 mm 0.00 W/m2 FEW
06:04 15.7 °C 14.9 °C 1020.5 hPa WNW 1.4 km/h 0.3 km/h 95% 0 mm 0.00 W/m2 OVC
06:09 16.1 °C 14.6 °C 1020.5 hPa North 3.7 km/h 0.3 km/h 91% 0 mm 0.00 W/m2 OVC
06:14 16.2 °C 14.6 °C 1020.5 hPa East 1.4 km/h 0.6 km/h 90% 0 mm 110.80 W/m2 OVC
06:19 16.2 °C 14.6 °C 1020.5 hPa Calm   0.3 km/h 90% 0 mm 138.10 W/m2 OVC
06:24 16.4 °C 14.4 °C 1020.5 hPa ESE 1.9 km/h 0.3 km/h 88% 0 mm 172.40 W/m2 OVC
06:29 16.3 °C 14.3 °C 1020.5 hPa Calm     88% 0 mm 172.40 W/m2 OVC
06:34 16.4 °C 14.4 °C 1020.5 hPa Calm     88% 0 mm 200.70 W/m2 OVC
06:39 16.5 °C 14.5 °C 1020.5 hPa ESE 1.9 km/h 0.3 km/h 88% 0 mm 214.80 W/m2 OVC
06:44 16.4 °C 14.1 °C 1020.5 hPa Calm     86% 0 mm 221.90 W/m2 OVC
06:49 16.6 °C 14.2 °C 1019.9 hPa Calm     86% 0 mm 233.00 W/m2 OVC
06:54 16.6 °C 14.2 °C 1019.9 hPa Calm     86% 0 mm 237.00 W/m2 OVC
06:59 16.7 °C 14.3 °C 1020.2 hPa Calm     86% 0 mm 242.10 W/m2 OVC
07:04 16.7 °C 14.3 °C 1020.2 hPa Calm     86% 0 mm 247.10 W/m2 BKN
07:09 16.9 °C 14 °C 1020.5 hPa Calm   0.3 km/h 83% 0 mm 252.20 W/m2 BKN
07:14 16.9 °C 14 °C 1020.5 hPa West 3.2 km/h 0.3 km/h 83% 0 mm 257.20 W/m2 BKN
07:19 17.2 °C 14.3 °C 1020.5 hPa WNW 1.9 km/h 0.6 km/h 83% 0 mm 258.30 W/m2 BKN
07:24 17.2 °C 14.3 °C 1020.5 hPa West 1.9 km/h 1.8 km/h 83% 0 mm 249.20 W/m2 BKN
07:29 17.2 °C 14.3 °C 1020.5 hPa West 1.4 km/h 0.6 km/h 83% 0 mm 241.10 W/m2 BKN
07:34 17.3 °C 14 °C 1020.5 hPa WSW 1.9 km/h 0.6 km/h 81% 0 mm 250.20 W/m2 BKN
07:39 17.4 °C 14.1 °C 1020.2 hPa West 1.4 km/h 0.6 km/h 81% 0 mm 275.40 W/m2 BKN
07:44 17.4 °C 14.1 °C 1020.5 hPa NNW 1.9 km/h 0.6 km/h 81% 0 mm 275.40 W/m2 BKN
07:49 17.6 °C 14.3 °C 1020.2 hPa Calm     81% 0 mm 281.50 W/m2 BKN
07:54 17.6 °C 14.3 °C 1020.2 hPa SSW 1.4 km/h 0.3 km/h 81% 0 mm 286.50 W/m2 BKN
07:59 17.6 °C 14.3 °C 1020.2 hPa West 1.4 km/h 0.3 km/h 81% 0 mm 280.50 W/m2 BKN
08:04 17.6 °C 14.3 °C 1020.2 hPa NNE 3.7 km/h 0.6 km/h 81% 0 mm 284.50 W/m2 OVC
08:09 17.7 °C 14.4 °C 1020.5 hPa ENE 3.7 km/h 0.6 km/h 81% 0 mm 289.60 W/m2 OVC
08:14 17.7 °C 14.4 °C 1020.5 hPa West 1.9 km/h 1.1 km/h 81% 0 mm 284.50 W/m2 OVC
08:19 17.8 °C 14.5 °C 1020.9 hPa West 3.2 km/h 0.6 km/h 81% 0 mm 301.70 W/m2 OVC
08:24 17.8 °C 14.5 °C 1020.9 hPa WNW 1.9 km/h 0.3 km/h 81% 0 mm 312.80 W/m2 OVC
08:29 18.1 °C 14.8 °C 1020.5 hPa Calm   0.3 km/h 81% 0 mm 312.80 W/m2 OVC
08:34 18.2 °C 14.7 °C 1020.5 hPa North 1.9 km/h 1.1 km/h 80% 0 mm 310.80 W/m2 OVC
08:39 18.3 °C 14.8 °C 1020.5 hPa Calm     80% 0 mm 324.90 W/m2 OVC
08:44 18.4 °C 14.9 °C 1020.5 hPa Calm     80% 0 mm 324.90 W/m2 OVC
08:49 18.7 °C 15 °C 1020.5 hPa SW 1.9 km/h 0.3 km/h 79% 0 mm 349.20 W/m2 OVC
08:54 18.8 °C 15.1 °C 1020.9 hPa NNE 3.7 km/h 0.3 km/h 79% 0 mm 343.10 W/m2 OVC
08:59 18.8 °C 15.3 °C 1021.2 hPa WSW 3.2 km/h 2.6 km/h 80% 0 mm 343.10 W/m2 OVC
09:04 18.8 °C 15.3 °C 1021.2 hPa Calm   2.1 km/h 80% 0 mm 306.70 W/m2 OVC
09:09 18.7 °C 15.2 °C 1021.2 hPa Calm   0.3 km/h 80% 0 mm 295.60 W/m2 OVC
09:14 18.7 °C 15.2 °C 1021.6 hPa Calm   0.3 km/h 80% 0 mm 287.50 W/m2 OVC
09:19 18.4 °C 15.1 °C 1021.9 hPa Calm     81% 0 mm 273.40 W/m2 OVC
09:24 18.4 °C 15.4 °C 1021.9 hPa Calm     83% 0 mm 282.50 W/m2 OVC
09:29 18.3 °C 15.4 °C 1022.2 hPa Calm     83% 0 mm 258.30 W/m2 OVC
09:34 18.3 °C 15.4 °C 1022.2 hPa Calm     83% 0 mm 262.30 W/m2 OVC
09:39 18.2 °C 15.8 °C 1022.6 hPa Calm     86% 0 mm 253.20 W/m2 OVC
09:44 18 °C 15.6 °C 1022.6 hPa Calm   0.3 km/h 86% 0 mm 234.00 W/m2 OVC
09:49 18 °C 16 °C 1022.6 hPa Calm     88% 0 mm 240.10 W/m2 OVC
09:54 17.4 °C 16.3 °C 1022.2 hPa Calm   0.3 km/h 93% 0.51 mm 240.10 W/m2 RA
09:59 17.3 °C 16.5 °C 1022.2 hPa Calm     95% 0.76 mm 237.00 W/m2 RA
10:04 17.2 °C 16.6 °C 1021.9 hPa Calm     96% 1.02 mm 233.00 W/m2 RA
10:09 16.8 °C 16.5 °C 1021.6 hPa ESE 1.9 km/h 0.3 km/h 98% 1.52 mm 231.00 W/m2 RA
10:14 16.7 °C 16.4 °C 1021.6 hPa Calm     98% 1.78 mm 232.00 W/m2 RA
10:19 16.6 °C 16.3 °C 1021.9 hPa Calm   0.3 km/h 98% 2.03 mm 234.00 W/m2 -RA
10:24 16.5 °C 16.2 °C 1021.6 hPa Calm     98% 2.54 mm 242.10 W/m2 -RA
10:29 16.4 °C 16.1 °C 1021.6 hPa Calm     98% 3.05 mm 249.20 W/m2 -RA
10:34 16.3 °C 16 °C 1021.9 hPa Calm     98% 4.06 mm 259.30 W/m2 -RA
10:39 16.3 °C 16 °C 1021.6 hPa Calm     98% 4.57 mm 274.40 W/m2 -RA
10:44 16.3 °C 16 °C 1021.6 hPa Calm     98% 4.83 mm 305.70 W/m2 -RA
10:49 16.4 °C 16.1 °C 1021.2 hPa SSE 1.9 km/h 0.3 km/h 98% 4.83 mm 313.80 W/m2 -RA
10:54 16.5 °C 16.2 °C 1021.2 hPa SSE 1.9 km/h 0.3 km/h 98% 4.32 mm 316.80 W/m2 -RA
10:59 16.5 °C 16.2 °C 1021.6 hPa Calm     98% 4.06 mm 318.80 W/m2 -RA
11:04 16.6 °C 16.3 °C 1021.6 hPa Calm     98% 3.81 mm 318.80 W/m2 -RA
11:09 16.6 °C 16.3 °C 1021.6 hPa Calm     98% 3.56 mm 296.60 W/m2 -RA
11:14 16.7 °C 16.4 °C 1021.6 hPa West 3.2 km/h 1.4 km/h 98% 3.3 mm 296.60 W/m2 -RA
11:19 16.7 °C 16.4 °C 1021.2 hPa West 1.9 km/h 1.8 km/h 98% 3.05 mm 324.90 W/m2 -RA
11:24 16.8 °C 16.5 °C 1021.2 hPa West 3.7 km/h 1.8 km/h 98% 2.79 mm 345.10 W/m2 -RA
11:29 16.8 °C 16.5 °C 1021.2 hPa South 3.7 km/h 2.1 km/h 98% 2.54 mm 345.10 W/m2 -RA
11:34 16.8 °C 16.5 °C 1021.2 hPa West 1.9 km/h 1.8 km/h 98% 1.78 mm 338.00 W/m2 -RA
11:39 16.8 °C 16.5 °C 1020.9 hPa WNW 5.6 km/h 3.2 km/h 98% 1.52 mm 336.00 W/m2 -RA
11:44 16.8 °C 16.5 °C 1020.9 hPa NW 3.7 km/h 1.4 km/h 98% 1.78 mm 321.90 W/m2 -RA
11:49 16.8 °C 16.5 °C 1020.5 hPa WNW 6.4 km/h 2.1 km/h 98% 2.29 mm 316.80 W/m2 -RA
11:54 16.8 °C 16.5 °C 1020.5 hPa South 1.9 km/h 1.4 km/h 98% 2.54 mm 937.00 W/m2 -RA
11:59 16.8 °C 16.5 °C 1020.2 hPa West 4.7 km/h 2.9 km/h 98% 3.05 mm 324.90 W/m2 -RA
12:04 16.8 °C 16.5 °C 1019.9 hPa South 3.7 km/h 3.5 km/h 98% 3.3 mm 332.00 W/m2 RA
12:09 16.9 °C 16.6 °C 1019.5 hPa SSE 5.6 km/h 3.5 km/h 98% 3.56 mm 337.00 W/m2 RA
12:14 16.9 °C 16.6 °C 1019.2 hPa SSE 5.6 km/h 3.5 km/h 98% 3.81 mm 335.00 W/m2 RA
12:19 17.2 °C 16.9 °C 1019.2 hPa SE 5.6 km/h 2.6 km/h 98% 4.06 mm 336.00 W/m2 RA
12:24 17.3 °C 17 °C 1019.5 hPa West 3.7 km/h 3.2 km/h 98% 4.06 mm 353.20 W/m2 RA
12:29 17.6 °C 17.3 °C 1019.5 hPa SSW 5.6 km/h 6.4 km/h 98% 3.81 mm 383.50 W/m2 RA
12:34 18 °C 17.7 °C 1019.2 hPa SSW 11.1 km/h 3.5 km/h 98% 3.56 mm 432.00 W/m2 BKN
12:39 18.3 °C 18 °C 1019.2 hPa SW 5.6 km/h 4 km/h 98% 3.3 mm 526.90 W/m2 BKN
12:44 18.4 °C 18.1 °C 1018.8 hPa WNW 7.9 km/h 4.7 km/h 98% 2.79 mm 466.30 W/m2 BKN
12:49 18.8 °C 18.5 °C 1018.8 hPa NNW 6.4 km/h 5.8 km/h 98% 2.29 mm 428.90 W/m2 BKN
12:54 18.8 °C 18.5 °C 1018.2 hPa NE 7.4 km/h 6.1 km/h 98% 2.03 mm 489.50 W/m2 BKN
12:59 19.2 °C 18.9 °C 1018.5 hPa West 9.3 km/h 6.4 km/h 98% 1.52 mm 776.40 W/m2 BKN
13:04 19.2 °C 18.9 °C 1018.5 hPa West 6.4 km/h 6.4 km/h 98% 1.27 mm 824.90 W/m2 OVC
13:09 19.9 °C 19.6 °C 1018.8 hPa NNW 6.4 km/h 3.5 km/h 98% 0.76 mm 824.90 W/m2 OVC
13:14 20.1 °C 19.8 °C 1019.2 hPa ESE 5.6 km/h 4 km/h 98% 0.51 mm 840.00 W/m2 OVC
13:19 20.2 °C 19.9 °C 1019.2 hPa West 5.6 km/h 3.5 km/h 98% 0.25 mm 823.80 W/m2 OVC
13:24 20.6 °C 20.3 °C 1019.2 hPa Calm   0.3 km/h 98% 0 mm 816.80 W/m2 OVC
13:29 20.8 °C 20.5 °C 1018.8 hPa ESE 1.9 km/h 1.1 km/h 98% 0 mm 1153.00 W/m2 OVC
13:34 20.9 °C 20.6 °C 1018.8 hPa Calm     98% 0 mm 840.00 W/m2 OVC
13:39 20.9 °C 20.6 °C 1018.5 hPa ESE 5.6 km/h 2.1 km/h 98% 0 mm 838.00 W/m2 OVC
13:44 20.9 °C 20.6 °C 1018.5 hPa West 5.6 km/h 5.5 km/h 98% 0 mm 825.90 W/m2 OVC
13:49 21 °C 20.7 °C 1018.8 hPa Calm   0.3 km/h 98% 0 mm 745.10 W/m2 OVC
13:54 21 °C 20.3 °C 1018.5 hPa SW 3.7 km/h 1.4 km/h 96% 0 mm 791.50 W/m2 OVC
13:59 21.1 °C 20.4 °C 1018.8 hPa ESE 3.2 km/h 2.9 km/h 96% 0 mm 805.70 W/m2 OVC
14:04 21.3 °C 20.6 °C 1019.2 hPa WSW 1.9 km/h 1.8 km/h 96% 0 mm 743.10 W/m2 OVC
14:09 21.3 °C 20.6 °C 1019.2 hPa South 5.6 km/h 2.6 km/h 96% 0 mm 743.10 W/m2 OVC
14:14 21.3 °C 20.6 °C 1019.2 hPa South 4.7 km/h 2.6 km/h 96% 0 mm 704.70 W/m2 OVC
14:19 21.4 °C 21.1 °C 1019.5 hPa WNW 3.7 km/h 2.1 km/h 98% 0 mm 582.50 W/m2 OVC
14:24 21.4 °C 20.7 °C 1019.5 hPa East 5.6 km/h 2.9 km/h 96% 0 mm 697.60 W/m2 OVC
14:29 21.3 °C 20.6 °C 1019.9 hPa NNW 3.7 km/h 0.3 km/h 96% 0 mm 479.40 W/m2 OVC
14:34 21.3 °C 20.6 °C 1019.5 hPa NW 5.6 km/h 1.8 km/h 96% 0 mm 389.60 W/m2 OVC
14:39 21.3 °C 20.6 °C 1019.9 hPa WNW 1.9 km/h 1.8 km/h 96% 0 mm 388.50 W/m2 OVC
14:44 21.6 °C 20.9 °C 1019.9 hPa South 3.7 km/h 1.8 km/h 96% 0 mm 605.70 W/m2 OVC
14:49 21.7 °C 21.1 °C 1019.9 hPa SSE 1.9 km/h 1.1 km/h 96% 0 mm 707.70 W/m2 OVC
14:54 21.6 °C 20.8 °C 1019.9 hPa WSW 3.7 km/h 1.4 km/h 95% 0 mm 640.00 W/m2 OVC
14:59 21.6 °C 20.8 °C 1019.5 hPa ESE 3.7 km/h 1.8 km/h 95% 0 mm 395.60 W/m2 OVC
15:04 21.4 °C 20.6 °C 1019.5 hPa Calm   1.1 km/h 95% 0 mm 407.70 W/m2 OVC
15:09 21.7 °C 21.1 °C 1019.5 hPa SSE 3.7 km/h 1.1 km/h 96% 0 mm 452.20 W/m2 OVC
15:14 21.7 °C 20.9 °C 1019.9 hPa ESE 5.6 km/h 1.8 km/h 95% 0 mm 496.60 W/m2 OVC
15:19 21.7 °C 21.1 °C 1019.9 hPa West 3.7 km/h 0.6 km/h 96% 0 mm 453.20 W/m2 OVC
15:24 21.6 °C 20.9 °C 1019.9 hPa SW 3.2 km/h 1.4 km/h 96% 0 mm 398.60 W/m2 OVC
15:29 21.6 °C 20.8 °C 1019.5 hPa South 3.7 km/h 1.1 km/h 95% 0 mm 398.60 W/m2 OVC
15:34 22.1 °C 20.9 °C 1019.9 hPa SW 3.7 km/h 1.4 km/h 93% 0 mm 386.50 W/m2 OVC
15:39 22.3 °C 20.8 °C 1019.9 hPa SE 5.6 km/h 2.6 km/h 91% 0 mm 1135.00 W/m2 OVC
15:44 22.3 °C 20.8 °C 1020.2 hPa SW 1.9 km/h 0.6 km/h 91% 0 mm 354.20 W/m2 OVC
15:49 22.3 °C 21.1 °C 1019.9 hPa SSE 1.9 km/h 0.6 km/h 93% 0 mm 356.20 W/m2 FEW
15:54 22.3 °C 21.1 °C 1019.9 hPa South 3.7 km/h 0.6 km/h 93% 0 mm 378.40 W/m2 FEW
15:59 21.9 °C 20.7 °C 1019.9 hPa West 1.9 km/h 0.6 km/h 93% 0 mm 404.70 W/m2 FEW
16:04 21.9 °C 20.7 °C 1019.5 hPa Calm   0.6 km/h 93% 0 mm 637.00 W/m2 FEW
16:09 22.5 °C 20.9 °C 1019.5 hPa SE 1.9 km/h 2.1 km/h 91% 0 mm 838.00 W/m2 FEW
16:14 22.4 °C 20.8 °C 1019.5 hPa WSW 3.7 km/h 1.8 km/h 91% 0 mm 783.40 W/m2 FEW
16:19 22.4 °C 20.8 °C 1019.2 hPa West 3.7 km/h 1.1 km/h 91% 0 mm 600.60 W/m2 FEW
16:24 22.5 °C 20.9 °C 1019.2 hPa WNW 1.9 km/h 1.8 km/h 91% 0 mm 659.20 W/m2 FEW
16:28 22.6 °C 21.1 °C 1018.8 hPa West 3.7 km/h 1.8 km/h 91% 0 mm 582.50 W/m2 FEW
16:34 23 °C 20.9 °C 1018.8 hPa West 5.6 km/h 3.2 km/h 88% 0 mm 853.10 W/m2 FEW
16:39 23.2 °C 21.7 °C 1018.8 hPa Calm   1.4 km/h 91% 0 mm 1003.00 W/m2 FEW
16:39 23.2 °C 21.7 °C 1018.8 hPa Calm   1.4 km/h 91% 0 mm 826.90 W/m2 FEW
16:44 22.8 °C 21.3 °C 1018.2 hPa NNE 5.6 km/h 2.6 km/h 91% 0 mm 826.90 W/m2 FEW
16:47 23 °C 21.4 °C 1018.8 hPa NNE 4.7 km/h 2.9 km/h 91% 0 mm 738.00 W/m2 FEW
16:49 22.8 °C 21.3 °C 1018.2 hPa NNE 5.6 km/h 2.1 km/h 91% 0 mm 738.00 W/m2 FEW
16:54 22.7 °C 21.2 °C 1018.2 hPa Calm   1.4 km/h 91% 0 mm 445.10 W/m2 FEW
16:59 22.6 °C 21.1 °C 1018.2 hPa West 5.6 km/h 2.9 km/h 91% 0 mm 413.80 W/m2 FEW
17:04 22.6 °C 21.1 °C 1018.2 hPa ESE 1.9 km/h 2.9 km/h 91% 0 mm 377.40 W/m2 BKN
17:09 22.7 °C 21.5 °C 1017.8 hPa SSW 1.9 km/h 1.1 km/h 93% 0 mm 399.70 W/m2 BKN
17:14 22.6 °C 21.4 °C 1017.8 hPa Calm     93% 0 mm 420.90 W/m2 BKN
17:19 22.7 °C 21.5 °C 1018.2 hPa SSW 3.7 km/h 0.6 km/h 93% 0 mm 383.50 W/m2 BKN
17:24 23 °C 21.4 °C 1018.2 hPa West 3.7 km/h 0.3 km/h 91% 0 mm 416.80 W/m2 BKN
17:29 22.8 °C 21.3 °C 1018.8 hPa Calm   0.3 km/h 91% 0 mm 400.70 W/m2 BKN
17:34 23 °C 21.8 °C 1018.8 hPa Calm     93% 0 mm 370.40 W/m2 BKN
17:39 23 °C 21.8 °C 1018.8 hPa Calm     93% 0 mm 363.30 W/m2 BKN
17:44 23.5 °C 21.9 °C 1018.8 hPa Calm     91% 0 mm 359.30 W/m2 BKN
17:49 23.7 °C 22.2 °C 1018.8 hPa Calm     91% 0 mm 359.30 W/m2 BKN
17:54 23.8 °C 21.7 °C 1018.5 hPa South 1.9 km/h 0.3 km/h 88% 0 mm 348.10 W/m2 BKN
17:59 23.6 °C 22.1 °C 1018.5 hPa Calm     91% 0 mm 348.10 W/m2 BKN
18:04 23.6 °C 21.9 °C 1018.2 hPa Calm     90% 0 mm 354.20 W/m2 OVC
18:09 23.7 °C 22.2 °C 1018.2 hPa Calm     91% 0 mm 367.30 W/m2 OVC
18:14 23.7 °C 22.2 °C 1018.5 hPa Calm     91% 0 mm 388.50 W/m2 OVC
18:19 23.3 °C 21.7 °C 1018.2 hPa Calm     91% 0 mm 391.60 W/m2 OVC
18:24 23.3 °C 22.1 °C 1018.2 hPa Calm     93% 0 mm 405.70 W/m2 OVC
18:29 23.3 °C 21.7 °C 1018.2 hPa Calm     91% 0 mm 417.80 W/m2 OVC
18:34 23.3 °C 21.7 °C 1018.2 hPa WNW 4.7 km/h 1.4 km/h 91% 0 mm 659.20 W/m2 OVC
18:39 23.3 °C 21.7 °C 1017.8 hPa NW 3.2 km/h 1.4 km/h 91% 0 mm 609.70 W/m2 OVC
18:44 23.3 °C 21.7 °C 1017.8 hPa WSW 1.9 km/h 1.1 km/h 91% 0 mm 445.10 W/m2 OVC
18:49 23.5 °C 21.9 °C 1017.8 hPa ESE 1.4 km/h 0.3 km/h 91% 0 mm 399.70 W/m2 OVC
18:54 23.3 °C 21.7 °C 1017.8 hPa NNE 3.7 km/h 2.6 km/h 91% 0 mm 390.60 W/m2 OVC
18:59 23.8 °C 22.2 °C 1017.8 hPa East 3.7 km/h 0.3 km/h 91% 0 mm 367.30 W/m2 OVC
19:04 23.8 °C 22.2 °C 1017.8 hPa Calm   0.6 km/h 91% 0 mm 362.30 W/m2 BKN
19:09 24.1 °C 22.6 °C 1017.5 hPa ENE 5.6 km/h 0.6 km/h 91% 0 mm 353.20 W/m2 BKN
19:14 23.9 °C 22.2 °C 1017.5 hPa ESE 3.7 km/h 0.6 km/h 90% 0 mm 353.20 W/m2 BKN
19:19 23.9 °C 22.3 °C 1017.2 hPa SE 4.7 km/h 1.1 km/h 91% 0 mm 346.10 W/m2 SCT
19:24 24.1 °C 22.3 °C 1017.2 hPa Calm   1.4 km/h 90% 0 mm 365.30 W/m2 SCT
19:29 23.9 °C 22.3 °C 1016.8 hPa SE 1.9 km/h 0.3 km/h 91% 0 mm 379.40 W/m2 SCT
19:34 23.9 °C 22.3 °C 1017.2 hPa ESE 1.9 km/h 0.6 km/h 91% 0 mm 366.30 W/m2 BKN
19:39 24.1 °C 22.6 °C 1017.2 hPa Calm     91% 0 mm 354.20 W/m2 BKN
19:44 24.1 °C 22.6 °C 1017.2 hPa Calm     91% 0 mm 339.10 W/m2 BKN
19:49 23.9 °C 22.3 °C 1017.2 hPa ESE 3.7 km/h 0.6 km/h 91% 0 mm 335.00 W/m2 BKN
19:54 23.9 °C 22.3 °C 1017.2 hPa East 1.4 km/h   91% 0 mm 334.00 W/m2 BKN
19:59 23.9 °C 22.3 °C 1017.2 hPa Calm   0.3 km/h 91% 0 mm 331.00 W/m2 BKN
20:04 23.9 °C 22.3 °C 1017.2 hPa Calm   0.3 km/h 91% 0 mm 321.90 W/m2 OVC
20:09 23.7 °C 22.5 °C 1017.2 hPa Calm     93% 0 mm 306.70 W/m2 OVC
20:14 23.6 °C 22.4 °C 1017.2 hPa SSE 3.7 km/h 0.6 km/h 93% 0 mm 301.70 W/m2 OVC
20:19 23.6 °C 22.4 °C 1017.2 hPa SE 3.7 km/h 1.1 km/h 93% 0 mm 288.60 W/m2 OVC
20:24 23.5 °C 22.3 °C 1017.2 hPa Calm     93% 0 mm 277.40 W/m2 OVC
20:29 23.3 °C 22.1 °C 1016.8 hPa Calm     93% 0 mm 271.40 W/m2 OVC
20:34 23.3 °C 22.1 °C 1017.2 hPa Calm     93% 0 mm 254.20 W/m2 OVC
20:39 23.3 °C 22.1 °C 1017.2 hPa Calm     93% 0 mm 237.00 W/m2 OVC
20:44 23.2 °C 22.3 °C 1017.5 hPa Calm     95% 0 mm 241.10 W/m2 OVC
20:49 23.1 °C 22.3 °C 1017.2 hPa Calm     95% 0 mm 238.10 W/m2 OVC
20:54 23 °C 22.3 °C 1017.2 hPa Calm     96% 0 mm 252.20 W/m2 OVC
20:59 22.8 °C 22.1 °C 1017.2 hPa NNE 1.9 km/h 0.3 km/h 96% 0 mm 257.20 W/m2 OVC
21:04 22.8 °C 22.1 °C 1017.2 hPa Calm   0.3 km/h 96% 0 mm 260.30 W/m2 OVC
21:09 22.8 °C 22.1 °C 1016.8 hPa Calm     96% 0 mm 270.40 W/m2 OVC
21:14 22.8 °C 22.1 °C 1017.2 hPa Calm     96% 0 mm 264.30 W/m2 OVC
21:19 22.8 °C 22.1 °C 1017.2 hPa Calm     96% 0 mm 245.10 W/m2 OVC
21:24 22.7 °C 22.1 °C 1017.2 hPa Calm     96% 0 mm 238.10 W/m2 OVC
21:29 22.6 °C 21.9 °C 1017.5 hPa Calm     96% 0 mm 215.80 W/m2 OVC
21:34 22.6 °C 21.9 °C 1017.5 hPa Calm     96% 0 mm 222.90 W/m2 OVC
21:39 22.6 °C 21.9 °C 1017.5 hPa Calm     96% 0 mm 198.70 W/m2 OVC
21:44 22.4 °C 21.7 °C 1017.2 hPa Calm     96% 0 mm 184.50 W/m2 OVC
21:49 22.3 °C 21.6 °C 1017.5 hPa Calm     96% 0 mm 178.50 W/m2 OVC
21:54 22.2 °C 21.6 °C 1017.5 hPa Calm     96% 0 mm 145.10 W/m2 OVC
21:59 22.1 °C 21.8 °C 1017.5 hPa Calm     98% 0 mm 0.00 W/m2 OVC
22:04 21.9 °C 21.6 °C 1017.5 hPa Calm     98% 0 mm 0.00 W/m2 OVC
22:09 21.9 °C 21.6 °C 1017.5 hPa Calm     98% 0 mm 0.00 W/m2 OVC
22:14 21.7 °C 21.4 °C 1017.5 hPa Calm     98% 0 mm 0.00 W/m2 OVC
22:19 21.7 °C 21.4 °C 1017.5 hPa Calm     98% 0 mm 0.00 W/m2 OVC
22:24 21.6 °C 21.3 °C 1017.5 hPa Calm     98% 0 mm 0.00 W/m2 OVC
22:29 21.6 °C 21.3 °C 1017.5 hPa Calm     98% 0 mm 0.00 W/m2 OVC
22:34 21.4 °C 21.1 °C 1017.5 hPa Calm     98% 0 mm 0.00 W/m2 -RA
22:39 21.4 °C 21.1 °C 1017.5 hPa Calm     98% 0 mm 0.00 W/m2 -RA
22:44 21.4 °C 21.1 °C 1017.2 hPa Calm     98% 0 mm 0.00 W/m2 -RA
22:49 21.4 °C 21.1 °C 1017.2 hPa Calm     98% 0 mm 0.00 W/m2 -RA
22:54 21.3 °C 20.9 °C 1017.2 hPa Calm     98% 0 mm 0.00 W/m2 -RA
22:59 21.3 °C 20.9 °C 1017.2 hPa Calm     98% 0 mm 0.00 W/m2 -RA
23:04 21.3 °C 20.9 °C 1017.2 hPa Calm     98% 0 mm 0.00 W/m2 OVC
23:09 21.3 °C 20.9 °C 1017.2 hPa Calm     98% 0 mm 0.00 W/m2 OVC
23:14 21.2 °C 20.9 °C 1017.2 hPa Calm     98% 0 mm 0.00 W/m2 OVC
23:19 21.1 °C 20.8 °C 1017.2 hPa Calm     98% 0 mm 0.00 W/m2 OVC
23:24 21.1 °C 20.8 °C 1017.2 hPa Calm     98% 0 mm 0.00 W/m2 OVC
23:29 21 °C 20.7 °C 1016.8 hPa Calm     98% 0 mm 0.00 W/m2 OVC
23:34 21 °C 20.7 °C 1016.8 hPa Calm     98% 0 mm 0.00 W/m2 OVC
23:39 21 °C 20.7 °C 1016.8 hPa Calm     98% 0 mm 0.00 W/m2 OVC
23:44 21 °C 20.7 °C 1016.8 hPa Calm     98% 0 mm 0.00 W/m2 OVC
23:49 21 °C 20.7 °C 1016.8 hPa Calm     98% 0 mm 0.00 W/m2 OVC
23:54 21 °C 20.7 °C 1016.8 hPa Calm     98% 0 mm 0.00 W/m2 OVC
23:59 21 °C 20.7 °C 1016.8 hPa Calm     98% 0 mm 0.00 W/m2 OVC
Juneau County Weather
Compliments of Weather Underground - 5.75 mb